Flag for Switzerland Weather past 2 weeks in Köniz, Bern, Switzerland

Now
57 °F

Scattered clouds.


Feels Like: 57 °F
Forecast: 43 / 65 °F
Wind: 2 mph from North

Location: Bern / Belp


UV Index: 0 (Low)

Visibility: N/A


Pressure: 29.89 "Hg

Humidity: 82%

Dew point: 52 °F

Location of KönizLocation

Historic Weather in Köniz

°F

Köniz temperature yesterday

Maximum temperature yesterday: 70 °F (at 3:50 PM)
Minimum temperature yesterday: 46 °F (at 2:20 AM)
Average temperature yesterday: 57 °F

Past Weeks' High & Low Weather Summary

 TemperatureHumidityPressure
High70 °F (Apr 11, 3:20 PM)100% (Apr 10, 12:50 AM)30.24 "Hg (Apr 10, 12:50 AM)
Low27 °F (Apr 17, 5:50 AM)24% (Apr 13, 6:20 PM)29.62 "Hg (Apr 20, 3:50 PM)
Average50 °F72%29.99 "Hg
* Reported Apr 9 8:20 PM — Apr 24 8:20 PM, Köniz, Weather by CustomWeather, © 2014

Note: Actual official high and low records may vary slightly from our data, if they occured in-between our weather recording intervals... More about our weather records

Advertising

Historic Weather Conditions — Data for Previous 24 hours

 ConditionsComfort  
Time TempWeatherWind HumidityBarometerVisibility
8:20 PM
Apr 24
63 °FScattered clouds.3 mph64%29.89 "HgN/A
7:50 PM66 °FPassing clouds.2 mph52%29.89 "HgN/A
7:20 PM68 °FPassing clouds.5 mph53%29.89 "HgN/A
6:50 PM68 °FPassing clouds.6 mph53%29.89 "HgN/A
6:20 PM68 °FScattered clouds.5 mph49%29.92 "HgN/A
5:50 PM68 °FPassing clouds.3 mph49%29.92 "HgN/A
5:20 PM68 °FScattered clouds.6 mph49%29.92 "HgN/A
4:50 PM70 °FScattered clouds.6 mph46%29.92 "HgN/A
4:20 PM70 °FScattered clouds.6 mph46%29.92 "HgN/A
3:50 PM70 °FScattered clouds.7 mph46%29.95 "HgN/A
3:20 PM70 °FScattered clouds.2 mph46%29.95 "HgN/A
2:50 PM70 °FScattered clouds.8 mph46%29.98 "HgN/A
2:20 PM68 °FScattered clouds.2 mph49%29.98 "HgN/A
1:50 PM66 °FScattered clouds.5 mph52%29.98 "HgN/A
1:20 PM66 °FScattered clouds.3 mph52%30.01 "HgN/A
12:50 PM66 °FScattered clouds.5 mph56%30.01 "HgN/A
12:20 PM64 °FScattered clouds.5 mph60%30.04 "HgN/A
11:50 AM61 °FScattered clouds.5 mph68%30.07 "HgN/A
11:20 AM59 °FScattered clouds.2 mph72%30.07 "HgN/A
10:50 AM57 °FScattered clouds.3 mph77%30.07 "HgN/A
10:20 AM55 °FPartly sunny.2 mph82%30.09 "HgN/A
9:20 AM54 °FScattered clouds.1 mph88%30.09 "HgN/A
8:50 AM52 °FScattered clouds.3 mph100%30.09 "HgN/A
8:20 AM52 °FBroken clouds.3 mph100%30.09 "HgN/A
7:50 AM48 °FScattered clouds.2 mph100%30.09 "HgN/A
7:20 AM48 °FPassing clouds.1 mph100%30.09 "HgN/A
6:50 AM46 °FFog.1 mph100%30.07 "Hg3 mi
6:20 AM48 °FPassing clouds.2 mph100%30.07 "HgN/A
5:50 AM50 °FPartly cloudy.5 mph94%30.07 "HgN/A
5:20 AM50 °FDrizzle. Mostly cloudy.5 mph100%30.07 "HgN/A
4:50 AM50 °FLight rain. Mostly cloudy.6 mph100%30.07 "HgN/A
4:20 AM50 °FLight rain. Overcast.6 mph100%30.09 "HgN/A
3:50 AM50 °FSprinkles. Partly cloudy.7 mph100%30.09 "HgN/A
3:20 AM52 °FPassing clouds.5 mph94%30.09 "HgN/A
2:50 AM52 °FLight rain. Mostly cloudy.6 mph94%30.09 "HgN/A
2:20 AM52 °FLight rain. Mostly cloudy.7 mph94%30.09 "HgN/A
1:50 AM52 °FDrizzle. Overcast.7 mph94%30.09 "HgN/A
1:20 AM52 °FPassing clouds.7 mph94%30.09 "HgN/A
12:50 AM52 °FPassing clouds.7 mph94%30.09 "HgN/A
12:20 AM52 °FPartly cloudy.5 mph94%30.09 "HgN/A
11:50 PM
Apr 23
52 °FPartly cloudy.8 mph94%30.09 "HgN/A
11:20 PM54 °FSprinkles. Partly cloudy.13 mph82%30.09 "HgN/A
10:50 PM54 °FSprinkles. Passing clouds.13 mph88%30.09 "HgN/A
10:20 PM54 °FRain showers. Overcast.10 mph88%30.09 "HgN/A
9:50 PM54 °FThunderstorms. Partly cloudy.14 mph88%30.09 "HgN/A
9:20 PM55 °FThunderstorms. Broken clouds.13 mph77%30.09 "HgN/A
Weather by CustomWeather, © 2014

See weather overview